Weather History for Fort Knox, KY

Change the Weather History Date:

Friday, June 14, 2013

  Actual Average Record
Temperature  
Mean Temperature 68 °F -  
Max Temperature 81 °F 79 °F 91 °F (2001)
Min Temperature 54 °F 61 °F 49 °F (2014)
Cooling Degree Days 2    
Growing Degree Days 18 (Base 50)    
Moisture  
Dew Point 55 °F    
Average Humidity 64    
Maximum Humidity 91    
Minimum Humidity 37    
Precipitation  
Precipitation 0.00 in - - ()
Sea Level Pressure  
Sea Level Pressure 30.01 in    
Wind  
Wind Speed 4 mph (North)    
Max Wind Speed 8 mph    
Max Gust Speed -    
Visibility 10 miles    
Events Rain    
Averages and records for this station are not official NWS values.
T = Trace of Precipitation, MM = Missing Value Source: NWS Daily Summary

Daily Weather History Graph

Daily Weather History Graph

Search for Another Location

Airport:

Trip Planner

Search our weather history database for the weather conditions in past years. The results will help you decide how hot, cold, wet, or windy it might be!

Date:

Astronomy

Jun. 14, 2013 Rise Set
Actual Time 6:20 AM EDT 9:07 PM EDT
Civil Twilight 5:49 AM EDT 9:38 PM EDT
Nautical Twilight 5:10 AM EDT 10:18 PM EDT
Astronomical Twilight 4:25 AM EDT 11:02 PM EDT
Moon 11:50 AM EDT (6/14) 12:17 AM EDT (6/14)
Length of Visible Light 15h 49m
Length of Day
14h 46m
Waxing Crescent, 30% of the Moon is Illuminated
Jun 14
Waxing Crescent
Jun 16
First Quarter
Jun 23
Full
Jun 30
Last Quarter
Jul 8
New

Hourly Weather History & Observations

Time (EDT) Temp. Heat Index Dew Point Humidity Pressure Visibility Wind Dir Wind Speed Gust Speed Precip Events Conditions
12:58 AM 64.6 °F - 53.1 °F 66% 29.96 in 10.0 mi NW 4.6 mph - N/A   Clear
1:58 AM 60.3 °F - 52.7 °F 76% 29.97 in 10.0 mi WNW 6.9 mph - N/A   Clear
2:58 AM 60.1 °F - 53.2 °F 78% 29.95 in 10.0 mi NNW 6.9 mph - N/A   Clear
3:58 AM 59.5 °F - 52.3 °F 77% 29.95 in 10.0 mi NW 4.6 mph - N/A   Clear
4:58 AM 54.3 °F - 51.3 °F 89% 29.96 in 10.0 mi WNW 4.6 mph - N/A   Clear
5:58 AM 54.7 °F - 52.2 °F 91% 29.99 in 10.0 mi WNW 2.3 mph - N/A   Clear
6:58 AM 55.8 °F - 52.9 °F 90% 30.00 in 10.0 mi NNW 2.3 mph - N/A   Clear
7:58 AM 60.8 °F - 55.2 °F 82% 30.01 in 10.0 mi NW 6.9 mph - N/A   Clear
8:58 AM 64.0 °F - 54.9 °F 72% 30.04 in 10.0 mi North 6.9 mph - N/A   Clear
9:58 AM 66.7 °F - 56.5 °F 70% 30.04 in 10.0 mi Variable 1.2 mph - N/A   Clear
10:58 AM 70.0 °F - 57.4 °F 64% 30.04 in 10.0 mi SW 3.5 mph - N/A   Clear
11:58 AM 73.0 °F - 56.7 °F 56% 30.06 in 10.0 mi WNW 6.9 mph - N/A   Clear
12:17 PM 73.4 °F - 55.4 °F 53% 30.06 in 10.0 mi North 3.5 mph - N/A Rain Light Rain
12:27 PM 75.2 °F - 53.6 °F 47% 30.05 in 10.0 mi Variable 1.2 mph - N/A   Clear
12:58 PM 75.9 °F - 53.4 °F 45% 30.05 in 8.0 mi North 4.6 mph - 0.00 in   Clear
1:58 PM 77.5 °F - 49.3 °F 37% 30.03 in 10.0 mi Calm Calm - N/A   Clear
2:58 PM 78.6 °F - 53.4 °F 42% 30.03 in 10.0 mi North 4.6 mph - N/A   Clear
3:58 PM 80.8 °F 80.5 °F 54.3 °F 40% 30.03 in 10.0 mi Variable 3.5 mph - N/A   Clear
4:58 PM 80.6 °F 80.4 °F 54.9 °F 41% 30.02 in 10.0 mi ENE 8.1 mph - N/A   Clear
5:58 PM 81.1 °F 81.2 °F 57.2 °F 44% 30.03 in 10.0 mi Variable 5.8 mph - N/A   Partly Cloudy
6:58 PM 79.9 °F - 55.8 °F 43% 30.02 in 10.0 mi North 3.5 mph - N/A   Clear
7:58 PM 79.0 °F - 56.7 °F 46% 30.01 in 10.0 mi NE 4.6 mph - N/A   Clear
8:00 PM 78.8 °F - 55.4 °F 44% 30.01 in 10.0 mi NNE 2.3 mph - N/A   Clear
8:58 PM 72.0 °F - 61.3 °F 69% 30.00 in 10.0 mi North 2.3 mph - N/A   Mostly Cloudy
9:58 PM 68.0 °F - 61.0 °F 78% 30.01 in 10.0 mi NNE 2.3 mph - N/A   Clear
10:58 PM 66.2 °F - 59.2 °F 78% 30.03 in 10.0 mi NE 2.3 mph - N/A   Clear
11:58 PM 64.9 °F - 59.4 °F 82% 30.03 in 10.0 mi ESE 2.3 mph - N/A   Clear
11:59 PM 64.4 °F - 59.0 °F 83% 30.03 in 10.0 mi ESE 2.3 mph - N/A Rain Light Rain